Jennings, LA

12:41 PM CDT on May 26, 2017 (GMT -0500)
Jennings

Weather History for K3R7 - March, 2014

Change the Weather History Date:

Wednesday, March 12, 2014

  Actual Average (KCWF) Record (KCWF)
Temperature  
Mean Temperature 58 °F -  
Max Temperature 66 °F 69 °F 78 °F (2003)
Min Temperature 51 °F 53 °F 37 °F (2013)
Degree Days  
Heating Degree Days 6    
Growing Degree Days 8 (Base 50)    
Moisture  
Dew Point 49 °F    
Average Humidity 69    
Maximum Humidity 98    
Minimum Humidity 41    
Precipitation  
Precipitation 0.00 in - - ()
Sea Level Pressure  
Sea Level Pressure 29.94 in    
Wind  
Wind Speed 11 mph (NW)    
Max Wind Speed 22 mph    
Max Gust Speed 33 mph    
Visibility 10 miles    
Events      
Averages and records for this station are not official NWS values.
T = Trace of Precipitation, MM = Missing Value Source: NWS Daily Summary

Daily Weather History Graph

Daily Weather History Graph

Search for Another Location

Airport or City:

Trip Planner

Search our weather history database for the weather conditions in past years. The results will help you decide how hot, cold, wet, or windy it might be!

Date:

Astronomy

Mar. 12, 2014 Rise Set
Actual Time 7:24 AM CDT 7:17 PM CDT
Civil Twilight 7:00 AM CDT 7:41 PM CDT
Nautical Twilight 6:32 AM CDT 8:08 PM CDT
Astronomical Twilight 6:04 AM CDT 8:36 PM CDT
Moon 3:59 PM CDT (3/12) 4:43 AM CDT (3/12)
Length of Visible Light 12h 40m
Length of Day
11h 52m
Waxing Gibbous, 85% of the Moon is Illuminated
Mar 12
Waxing Gibbous
Mar 16
Full
Mar 23
Last Quarter
Mar 30
New
Apr 7
First Quarter

Hourly Weather History & Observations

Time (CDT) Temp. Dew Point Humidity Pressure Visibility Wind Dir Wind Speed Gust Speed Precip Events Conditions
12:15 AM 60.1 °F 59.2 °F 97% 29.74 in 10.0 mi SW 6.9 mph - N/A   Overcast
12:35 AM 60.4 °F 59.4 °F 96% 29.75 in 10.0 mi WSW 9.2 mph - N/A   Overcast
12:55 AM 60.8 °F 59.4 °F 95% 29.75 in 10.0 mi WSW 6.9 mph 16.1 mph N/A   Overcast
1:15 AM 60.8 °F 59.5 °F 96% 29.74 in 10.0 mi WSW 4.6 mph - N/A   Overcast
1:35 AM 61.0 °F 59.9 °F 96% 29.74 in 10.0 mi SW 9.2 mph 16.1 mph N/A   Overcast
1:55 AM 61.3 °F 59.9 °F 95% 29.74 in 10.0 mi SW 13.8 mph 17.3 mph N/A   Overcast
2:15 AM 61.5 °F 59.5 °F 93% 29.74 in 10.0 mi SW 10.4 mph 16.1 mph N/A   Overcast
2:35 AM 61.7 °F 59.9 °F 94% 29.74 in 10.0 mi WSW 10.4 mph - N/A   Overcast
2:55 AM 61.2 °F 59.5 °F 94% 29.74 in 10.0 mi WSW 8.1 mph - N/A   Overcast
3:15 AM 61.0 °F 59.0 °F 93% 29.75 in 10.0 mi WSW 9.2 mph 18.4 mph N/A   Overcast
3:35 AM 60.8 °F 59.2 °F 94% 29.74 in 10.0 mi WSW 5.8 mph - N/A   Overcast
3:55 AM 60.6 °F 59.0 °F 94% 29.75 in 10.0 mi WSW 6.9 mph - N/A   Overcast
4:15 AM 60.3 °F 59.0 °F 96% 29.75 in 10.0 mi WSW 6.9 mph - N/A   Overcast
4:35 AM 59.9 °F 58.5 °F 95% 29.76 in 10.0 mi WSW 5.8 mph - N/A   Overcast
4:55 AM 59.4 °F 58.5 °F 97% 29.77 in 10.0 mi WSW 8.1 mph - N/A   Overcast
5:15 AM 59.5 °F 58.5 °F 96% 29.78 in 10.0 mi SW 8.1 mph - N/A   Overcast
5:35 AM 59.5 °F 58.5 °F 96% 29.78 in 10.0 mi SW 5.8 mph - N/A   Overcast
5:55 AM 59.5 °F 58.6 °F 97% 29.80 in 10.0 mi WSW 9.2 mph - N/A   Overcast
6:15 AM 59.5 °F 58.6 °F 97% 29.81 in 10.0 mi West 8.1 mph - N/A   Overcast
6:35 AM 59.5 °F 59.0 °F 98% 29.82 in 7.0 mi West 8.1 mph - N/A   Overcast
6:55 AM 59.5 °F 59.0 °F 98% 29.83 in 7.0 mi West 8.1 mph - N/A   Overcast
7:15 AM 59.5 °F 59.0 °F 98% 29.84 in 7.0 mi West 6.9 mph - N/A   Overcast
7:35 AM 59.5 °F 59.0 °F 98% 29.84 in 7.0 mi West 5.8 mph - N/A   Overcast
7:55 AM 59.9 °F 59.0 °F 97% 29.85 in 5.0 mi WNW 6.9 mph - N/A   Overcast
8:15 AM 59.9 °F 59.0 °F 97% 29.87 in 3.0 mi WNW 9.2 mph - N/A   Overcast
8:35 AM 59.5 °F 59.0 °F 98% 29.89 in 4.0 mi WNW 10.4 mph - N/A   Overcast
8:55 AM 59.9 °F 58.6 °F 96% 29.90 in 7.0 mi NW 11.5 mph - N/A   Overcast
9:15 AM 60.4 °F 55.9 °F 85% 29.91 in 10.0 mi NNW 16.1 mph 20.7 mph N/A   Overcast
9:35 AM 60.4 °F 55.0 °F 82% 29.92 in 10.0 mi NNW 16.1 mph 19.6 mph N/A   Overcast
9:55 AM 59.9 °F 54.7 °F 83% 29.93 in 10.0 mi NNW 15.0 mph 19.6 mph N/A   Overcast
10:15 AM 61.0 °F 54.3 °F 79% 29.94 in 10.0 mi NNW 11.5 mph 20.7 mph N/A   Overcast
10:35 AM 61.5 °F 47.7 °F 60% 29.95 in 10.0 mi North 18.4 mph 26.5 mph N/A   Mostly Cloudy
10:55 AM 61.2 °F 47.1 °F 60% 29.97 in 10.0 mi North 16.1 mph 23.0 mph N/A   Clear
11:15 AM 61.3 °F 46.8 °F 59% 29.97 in 10.0 mi North 15.0 mph 25.3 mph N/A   Clear
11:35 AM 61.9 °F 46.8 °F 58% 29.99 in 10.0 mi North 13.8 mph 23.0 mph N/A   Clear
11:55 AM 61.9 °F 45.9 °F 56% 29.99 in 10.0 mi North 15.0 mph 23.0 mph N/A   Clear
12:15 PM 62.6 °F 46.2 °F 55% 30.00 in 10.0 mi North 16.1 mph 27.6 mph N/A   Clear
12:35 PM 63.0 °F 46.0 °F 54% 30.00 in 10.0 mi NNW 15.0 mph 24.2 mph N/A   Clear
1:15 PM 64.0 °F 47.1 °F 54% 30.00 in 10.0 mi NNW 19.6 mph 27.6 mph N/A   Clear
1:35 PM 64.4 °F 45.9 °F 51% 30.00 in 10.0 mi North 17.3 mph 29.9 mph N/A   Clear
1:55 PM 65.1 °F 46.0 °F 50% 30.00 in 10.0 mi North 18.4 mph 26.5 mph N/A   Clear
2:15 PM 64.9 °F 46.2 °F 51% 29.99 in 10.0 mi North 16.1 mph 25.3 mph N/A   Clear
2:35 PM 65.3 °F 46.6 °F 51% 29.99 in 10.0 mi North 16.1 mph 24.2 mph N/A   Clear
2:55 PM 65.7 °F 45.9 °F 49% 29.99 in 10.0 mi North 17.3 mph 24.2 mph N/A   Clear
3:15 PM 66.0 °F 45.1 °F 47% 29.99 in 10.0 mi North 21.9 mph 26.5 mph N/A   Clear
3:35 PM 66.0 °F 45.0 °F 47% 29.99 in 10.0 mi North 19.6 mph 27.6 mph N/A   Clear
3:55 PM 66.4 °F 44.8 °F 46% 29.99 in 10.0 mi North 19.6 mph 27.6 mph N/A   Clear
4:15 PM 65.8 °F 44.6 °F 46% 29.99 in 10.0 mi North 17.3 mph 24.2 mph N/A   Clear
4:35 PM 65.3 °F 43.2 °F 45% 30.00 in 10.0 mi North 17.3 mph 26.5 mph N/A   Clear
4:55 PM 65.5 °F 42.6 °F 43% 30.01 in 10.0 mi North 16.1 mph 33.4 mph N/A   Clear
5:15 PM 64.8 °F 41.5 °F 43% 30.01 in 10.0 mi North 18.4 mph 26.5 mph N/A   Clear
5:35 PM 64.4 °F 40.6 °F 42% 30.02 in 10.0 mi North 17.3 mph 28.8 mph N/A   Clear
5:55 PM 64.0 °F 40.1 °F 41% 30.02 in 10.0 mi North 20.7 mph 28.8 mph N/A   Clear
6:15 PM 63.5 °F 40.1 °F 42% 30.03 in 10.0 mi North 19.6 mph 26.5 mph N/A   Clear
6:35 PM 62.6 °F 40.3 °F 44% 30.04 in 10.0 mi North 12.7 mph 25.3 mph N/A   Clear
6:55 PM 61.7 °F 39.0 °F 43% 30.05 in 10.0 mi North 18.4 mph 25.3 mph N/A   Clear
7:15 PM 60.8 °F 38.8 °F 44% 30.05 in 10.0 mi North 16.1 mph 21.9 mph N/A   Clear
7:35 PM 59.9 °F 38.5 °F 45% 30.07 in 10.0 mi North 12.7 mph 18.4 mph N/A   Clear
7:55 PM 59.2 °F 38.5 °F 46% 30.08 in 10.0 mi North 11.5 mph - N/A   Clear
8:15 PM 58.8 °F 37.4 °F 45% 30.10 in 10.0 mi North 11.5 mph 18.4 mph N/A   Clear
8:35 PM 57.4 °F 38.3 °F 49% 30.11 in 10.0 mi North 8.1 mph - N/A   Clear
8:55 PM 56.3 °F 40.8 °F 56% 30.12 in 10.0 mi NNW 8.1 mph - N/A   Clear
9:15 PM 56.1 °F 39.0 °F 53% 30.13 in 10.0 mi NNW 9.2 mph - N/A   Clear
9:35 PM 55.6 °F 37.8 °F 51% 30.15 in 10.0 mi NNW 8.1 mph - N/A   Clear
9:55 PM 54.0 °F 39.4 °F 58% 30.16 in 10.0 mi NNW 8.1 mph - N/A   Clear
10:15 PM 54.5 °F 36.7 °F 51% 30.17 in 10.0 mi NNW 8.1 mph - N/A   Clear
10:35 PM 53.6 °F 36.7 °F 53% 30.18 in 10.0 mi NNW 8.1 mph - N/A   Clear
10:55 PM 52.9 °F 36.5 °F 54% 30.18 in 10.0 mi NNW 5.8 mph - N/A   Clear
11:15 PM 52.3 °F 36.9 °F 56% 30.19 in 10.0 mi North 5.8 mph - N/A   Clear
11:35 PM 51.8 °F 36.0 °F 55% 30.20 in 10.0 mi North 6.9 mph - N/A   Clear
11:55 PM 51.6 °F 35.2 °F 54% 30.21 in 10.0 mi North 5.8 mph - N/A   Clear